Location: Franzen
(48.6167°N, 15.3833°E)
Time: 09:38:18
(UTC+00:00)

Cosmos 1850 Rocket - Pass Details

Date: 22 April 2021
Orbit: 753 x 786 km, 74.0° (Epoch: 16 May)

Event Time Altitude Azimuth Distance (km) Brightness Sun altitude
Exits shadow 20:27:53 44° 125° (SE) 1,055 4.2 -20.6°
Maximum altitude 20:28:30 46° 105° (ESE) 1,025 4.3 -20.6°
Drops below altitude 10° 20:33:29 10° 33° (NNE) 2,316 6.7 -21.2°
Sets 20:35:57 0° 28° (NNE) 3,252 7.6 -21.4°
